Lexington Weather

Lexington, Massachusetts, USA

53°F
10/20/2019 8:24pm 
  • Lexington Conditions: Mostly cloudy
  • Temperature: 53.1°F / 11.7°CColder 0.9°F than last hour.
  • Dew Point: 48.4°FIncreased 0.2°Fsince last hour.
  • Relative Humidity: 84%Increased 3.0% since last hour.
  • Wind: Calm, 10-min avg: Calm, gust: None
  • Barometer: 30.02 in Steady
  • Visibility: 10 miles
  • Rain Today: 0.00 in
  •   

Regional Weather Roundup
for Boston, MA

        
000
ASUS41 KBOX 180210
RWRBOX

REGIONAL WEATHER ROUNDUP
NATIONAL WEATHER SERVICE BOSTON/NORTON MA
1000 PM EDT THU OCT 17 2019

NOTE:  "FAIR" INDICATES FEW OR NO CLOUDS BELOW 12,000 FEET WITH NO 
SIGNIFICANT WEATHER AND/OR OBSTRUCTIONS TO VISIBILITY.

MAZALL-180300-
EASTERN MASSACHUSETTS
  
CITY           SKY/WX    TMP DP  RH WIND       PRES   REMARKS
BOSTON         FAIR      54  38  54 W17G32    29.32R                  
BEVERLY        FAIR      50  38  63 W15G24    29.29R                  
LAWRENCE       FAIR      49  37  63 W15G28    29.31R                  
BEDFORD        MOCLDY    53  38  56 W14       29.32R                  
BLUE HILL      NOT AVBL                                               
NORWOOD        MOCLDY    54  39  57 W9        29.34R                  
MARSHFIELD     FAIR      52  39  62 W10G17    29.32R                  
PLYMOUTH       FAIR      50  41  71 W15       29.34R                  
TAUNTON        CLOUDY    53  41  63 W10       29.35R                  
NEW BEDFORD    FAIR      52  42  69 W13         N/A                   
$$

MAZALL-180300-
CAPE COD AND THE ISLANDS
  
CITY           SKY/WX    TMP DP  RH WIND       PRES   REMARKS
FALMOUTH       MOCLDY    52  43  71 W24G35    29.35R                  
HYANNIS        FAIR      53  41  63 W15G24    29.33R                  
CHATHAM        NOT AVBL                                               
PROVINCETOWN   FAIR      52  42  69 W23G31      N/A                   
NANTUCKET      CLOUDY    56  42  59 W24G37    29.38R                  
MARTHAS VNYRD  CLOUDY    55  42  61 W22G29    29.39R                  
$$
 
MAZALL-180300-
CENTRAL AND WESTERN MASSACHUSETTS
  
CITY           SKY/WX    TMP DP  RH WIND       PRES   REMARKS
WORCESTER      MOCLDY    47  38  71 W16G32    29.34R                  
FITCHBURG      CLOUDY    50  38  63 NW12      29.34R                  
ORANGE         MOCLDY    50  38  63 NW9       29.36R                  
SPRINGFIELD    CLOUDY    51  40  64 W15       29.38R                  
WESTFIELD      MOCLDY    51  40  65 NW17G30   29.40R                  
NORTH ADAMS    LGT RAIN  46  42  86 W17G25    29.43R                  
PITTSFIELD     LGT RAIN  46  42  86 NW15G28   29.43R                  
$$
 
RIZALL-180300-
RHODE ISLAND
  
CITY           SKY/WX    TMP DP  RH WIND       PRES   REMARKS
PROVIDENCE     CLOUDY    52  42  69 W15       29.38R                  
NEWPORT        CLOUDY    54  41  61 W9G21     29.39R                  
BLOCK ISLAND   CLOUDY    54  43  66 W25G39    29.45R                  
SMITHFIELD     CLOUDY   N/A N/A N/A W10       29.37R                  
WESTERLY       MOCLDY    57  44  62 W10G22    29.44R                  
$$
 
CTZALL-180300-
CONNECTICUT
  
CITY           SKY/WX    TMP DP  RH WIND       PRES   REMARKS
BRADLEY INTL   CLOUDY    54  40  59 W18G26    29.41R                  
HARTFORD       CLOUDY    54  41  61 NW15G23   29.44R                  
BRIDGEPORT     CLOUDY    54  41  61 W15G26    29.49R                  
DANBURY        CLOUDY    50  40  68 W14G24    29.51R                  
GROTON         MOCLDY    54  43  66 W14G30    29.44R                  
NEW HAVEN      CLOUDY    56  43  61 W12       29.49R                  
CHESTER        CLOUDY    50  46  87 VRB6G13   29.47R                  
MERIDEN        CLOUDY    50  45  83 VRB6      29.47R                  
WILLIMANTIC    CLOUDY    51  41  68 W9G17     29.43R                  
OXFORD         LGT RAIN  48  43  82 W6        29.49R                  
$$

MEZ002-015-021-024-NHZ003-005-008-011-012-014-VTZ005-008-180300-
NORTHERN NEW ENGLAND
  
CITY           SKY/WX    TMP DP  RH WIND       PRES   REMARKS
PORTLAND ME    CLOUDY    50  46  86 W8        29.19R                  
BANGOR ME      MOCLDY    46  45  96 NW7       29.13R                  
CONCORD NH     FAIR      45  36  70 W14G25    29.29R                  
MANCHESTER NH  MOCLDY    49  37  63 NW12      29.29R                  
NASHUA NH      MOCLDY    49  39  68 W14G25    29.32R                  
PORTSMOUTH NH  MOCLDY    48  39  71 W17       29.24R                  
JAFFREY NH     MOCLDY    46  37  71 NW9G25    29.34R                  
KEENE NH       CLOUDY    47  40  76 NW12      29.37R                  
BURLINGTON VT  LGT RAIN  45  42  89 NW17      29.43R                  
MT. WASHINGTON LGTSLEET  25  25 100 W58G64      N/A  VSB 1/16WCI   3  
$$

NYZ052-076-180300-
EASTERN NEW YORK
  
CITY           SKY/WX    TMP DP  RH WIND       PRES   REMARKS
ALBANY         CLOUDY    51  43  74 W10G22    29.48R                  
NEW YORK CITY  MOCLDY    56  40  55 W12G24    29.58R                  
$$
 
ANZALL-180300-
MARINE OBSERVATIONS
  
STATION/POSITION TIME  TEMP    WIND        PRES    VSBY  WAVE
                       AIR SEA DIR/SP/G                  HT/PER
                 (UTC) (F)     (DEG/KT/KT) (MB)    (MI)  (FT/S)
BOSTON BUOY      0150   53 57  280/ 27/ 35  990.8R         5/ 4
BUZZARDS BAY     0100   55     270/ 36/ 39  994.0R
NANTUCKET SOUND  0140      57                N/A           4/ 4
MASS BAY-STELLWA 0104   52 56  280/ 25/ 31  989.3R  1 7/8  6/11
ISLE OF SHOALS   0100   49     260/ 23/ 25  988.5R
S OF BLOCK IS    0130      61                N/A          12/10
$$

......................KEY.........................
  SKY/WX - SKY CONDITION/PRESENT WEATHER
  TMP    - TEMPERATURE IN FAHRENHEIT
  DWPT   - DEWPOINT IN FAHRENHEIT
  RH     - RELATIVE HUMIDITY IN PERCENT
  WIND   - DIRECTION AND SPEED IN MPH
  PRES   - MEAN SEA LEVEL PRESSURE IN INCHES OF HG
  WCI    - WIND CHILL INDEX
  VSB    - VISIBILITY IN MILES
  HX     - HEAT INDEX
  TC     - TEMPERATURE IN CELSIUS
  VRB    - VARIABLE WIND DIRECTION
  N/A    - NOT AVAILABLE
  
      

Other recent Regional Weather Roundups

Sun Oct 20, 8:10pm

Sun Oct 20, 8:00pm

Sun Oct 20, 7:10pm

Sun Oct 20, 7:01pm

Sun Oct 20, 6:10pm

Sun Oct 20, 6:00pm

Sun Oct 20, 5:10pm

Sun Oct 20, 5:00pm

Sun Oct 20, 4:10pm

Sun Oct 20, 4:00pm

Sun Oct 20, 3:10pm

Sun Oct 20, 3:00pm

Sun Oct 20, 2:10pm

Sun Oct 20, 2:01pm

Sun Oct 20, 1:10pm

Sun Oct 20, 1:01pm

Sun Oct 20, 12:10pm

Sun Oct 20, 12:00pm

Sun Oct 20, 11:10am

Sun Oct 20, 11:00am

Sun Oct 20, 10:10am

Sun Oct 20, 10:00am

Sun Oct 20, 9:10am

Sun Oct 20, 9:00am

Sun Oct 20, 8:10am

Sun Oct 20, 8:00am

Sun Oct 20, 7:10am

Sun Oct 20, 7:00am

Sun Oct 20, 6:10am

Sun Oct 20, 6:00am

Sun Oct 20, 5:10am

Sun Oct 20, 5:00am

Sun Oct 20, 4:10am

Sun Oct 20, 4:00am

Sun Oct 20, 3:10am

Sun Oct 20, 3:00am

Sun Oct 20, 2:10am

Sun Oct 20, 2:00am

Sun Oct 20, 1:10am

Sun Oct 20, 1:00am

Sun Oct 20, 12:10am

Sun Oct 20, 12:00am

Sat Oct 19, 11:10pm

Sat Oct 19, 11:00pm

Sat Oct 19, 10:10pm

Sat Oct 19, 10:00pm

Sat Oct 19, 9:10pm

Sat Oct 19, 9:00pm

Sat Oct 19, 8:10pm

Sat Oct 19, 8:00pm

Sat Oct 19, 7:10pm

Sat Oct 19, 7:00pm

Sat Oct 19, 6:10pm

Sat Oct 19, 6:00pm

Sat Oct 19, 5:10pm

Sat Oct 19, 5:00pm

Sat Oct 19, 4:10pm

Sat Oct 19, 4:00pm

Sat Oct 19, 3:10pm

Sat Oct 19, 3:01pm

Sat Oct 19, 2:10pm

Sat Oct 19, 2:00pm

Sat Oct 19, 1:10pm

Sat Oct 19, 1:01pm

Sat Oct 19, 12:10pm

Sat Oct 19, 12:00pm

Sat Oct 19, 11:10am

Sat Oct 19, 11:01am

Sat Oct 19, 10:10am

Sat Oct 19, 10:00am

Sat Oct 19, 9:10am

Sat Oct 19, 9:00am

Sat Oct 19, 8:10am

Sat Oct 19, 8:00am

Sat Oct 19, 7:10am

Sat Oct 19, 7:00am

Sat Oct 19, 6:10am

Sat Oct 19, 6:00am

Sat Oct 19, 5:10am

Sat Oct 19, 5:00am

Sat Oct 19, 4:10am

Sat Oct 19, 4:00am

Sat Oct 19, 3:10am

Sat Oct 19, 3:00am

Sat Oct 19, 2:10am

Sat Oct 19, 2:00am

Sat Oct 19, 1:10am

Sat Oct 19, 1:00am

Sat Oct 19, 12:10am

Sat Oct 19, 12:00am

Fri Oct 18, 11:10pm

Fri Oct 18, 11:01pm

Fri Oct 18, 10:10pm

Fri Oct 18, 10:00pm

Fri Oct 18, 9:10pm

Fri Oct 18, 9:00pm

Fri Oct 18, 8:10pm

Fri Oct 18, 8:00pm

Fri Oct 18, 7:10pm

Fri Oct 18, 7:00pm

Fri Oct 18, 6:10pm

Fri Oct 18, 6:01pm

Fri Oct 18, 5:10pm

Fri Oct 18, 5:00pm

Fri Oct 18, 4:10pm

Fri Oct 18, 4:00pm

Fri Oct 18, 3:10pm

Fri Oct 18, 3:01pm

Fri Oct 18, 2:10pm

Fri Oct 18, 2:00pm

Fri Oct 18, 1:10pm

Fri Oct 18, 1:01pm

Fri Oct 18, 12:10pm

Fri Oct 18, 12:00pm

Fri Oct 18, 11:10am

Fri Oct 18, 11:00am

Fri Oct 18, 10:10am

Fri Oct 18, 10:00am

Fri Oct 18, 9:10am

Fri Oct 18, 9:00am

Fri Oct 18, 8:10am

Fri Oct 18, 8:00am

Fri Oct 18, 7:10am

Fri Oct 18, 7:00am

Fri Oct 18, 6:10am

Fri Oct 18, 6:00am

Fri Oct 18, 5:10am

Fri Oct 18, 5:00am

Fri Oct 18, 4:10am

Fri Oct 18, 4:00am

Fri Oct 18, 3:10am

Fri Oct 18, 3:00am

Fri Oct 18, 2:10am

Fri Oct 18, 2:00am

Fri Oct 18, 1:10am

Fri Oct 18, 1:00am

Fri Oct 18, 12:10am

Fri Oct 18, 12:00am

Thu Oct 17, 11:10pm

Thu Oct 17, 11:00pm

Thu Oct 17, 10:00pm

Thu Oct 17, 9:10pm

Thu Oct 17, 9:00pm

Meta data:

ID: 85eb6a3c-c101-4f06-9e33-2814ba955b1c
Link: https://api.weather.gov/products/85eb6a3c-c101-4f06-9e33-2814ba955b1c